Milwaukee, WI

4:07 AM CDT on July 23, 2017 (GMT -0500)
Gen Mitchell International

Weather History for KMKE - January, 2014

Change the Weather History Date:

Friday, January 10, 2014

  Actual Average Record
Temperature  
Mean Temperature 32 °F 22 °F  
Max Temperature 39 °F 29 °F 52 °F (1975)
Min Temperature 24 °F 16 °F -25 °F (1982)
Degree Days  
Heating Degree Days 33 43  
Month to date heating degree days 559 425  
Since 1 July heating degree days 3292 2985  
Cooling Degree Days 0 0  
Month to date cooling degree days 0 0  
Year to date cooling degree days 0 0  
Moisture  
Dew Point 30 °F    
Average Humidity 93    
Maximum Humidity 100    
Minimum Humidity 85    
Precipitation  
Precipitation 0.48 in 0.06 in 1.25 in (1975)
Month to date precipitation 0.69 0.60  
Year to date precipitation 0.69 0.60  
Snow  
Snow T in 0.50 in 5.70 in (1901)
Month to date snowfall 7.4 4.7  
Since 1 July snowfall 28.7 18.0  
Snow Depth 7.00 in    
Sea Level Pressure  
Sea Level Pressure 29.86 in    
Wind  
Wind Speed 10 mph (South)    
Max Wind Speed 20 mph    
Max Gust Speed 24 mph    
Visibility 3 miles    
Events Fog , Rain , Snow    
T = Trace of Precipitation, MM = Missing Value Source: NWS Daily Summary

Daily Weather History Graph

Daily Weather History Graph

Search for Another Location

Airport or City:

Trip Planner

Search our weather history database for the weather conditions in past years. The results will help you decide how hot, cold, wet, or windy it might be!

Date:

Astronomy

Jan. 10, 2014 Rise Set
Actual Time 7:21 AM CST 4:36 PM CST
Civil Twilight 6:50 AM CST 5:08 PM CST
Nautical Twilight 6:14 AM CST 5:43 PM CST
Astronomical Twilight 5:40 AM CST 6:18 PM CST
Moon 12:42 PM CST (1/10) 2:26 AM CST (1/10)
Length of Visible Light 10h 18m
Length of Day
9h 15m
Waxing Gibbous, 75% of the Moon is Illuminated
Jan 10
Waxing Gibbous
Jan 15
Full
Jan 23
Last Quarter
Jan 30
New
Feb 6
First Quarter

Hourly Weather History & Observations

Time (CST) Temp. Windchill Dew Point Humidity Pressure Visibility Wind Dir Wind Speed Gust Speed Precip Events Conditions
12:52 AM 25.0 °F 16.3 °F 21.9 °F 88% 30.14 in 4.0 mi SSW 8.1 mph - 0.00 in Snow Light Snow
1:52 AM 25.0 °F 18.1 °F 21.9 °F 88% 30.13 in 3.0 mi South 5.8 mph - 0.00 in   Overcast
1:59 AM 25.0 °F 19.3 °F 21.9 °F 88% 30.09 in 2.5 mi South 4.6 mph - N/A   Overcast
2:36 AM 25.0 °F 18.1 °F 23.0 °F 92% 30.09 in 2.0 mi South 5.8 mph - N/A   Overcast
2:52 AM 25.0 °F 18.1 °F 23.0 °F 92% 30.12 in 2.0 mi South 5.8 mph - N/A   Overcast
3:02 AM 25.0 °F 18.1 °F 23.0 °F 92% 30.08 in 1.8 mi South 5.8 mph - N/A   Overcast
3:49 AM 24.8 °F 19.1 °F 23.0 °F 93% 30.07 in 1.2 mi SSW 4.6 mph - N/A   Overcast
3:52 AM 25.0 °F 19.3 °F 23.0 °F 92% 30.10 in 1.2 mi SSW 4.6 mph - N/A   Overcast
4:44 AM 25.0 °F 19.3 °F 24.1 °F 96% 30.06 in 0.8 mi South 4.6 mph - N/A   Overcast
4:52 AM 25.0 °F 19.3 °F 24.1 °F 96% 30.09 in 0.5 mi South 4.6 mph - N/A Fog Light Freezing Fog
5:35 AM 26.1 °F 19.4 °F 24.1 °F 92% 30.05 in 1.0 mi South 5.8 mph - N/A   Overcast
5:52 AM 26.1 °F 20.5 °F 25.0 °F 96% 30.08 in 0.8 mi South 4.6 mph - N/A   Overcast
6:52 AM 27.0 °F 20.5 °F 26.1 °F 96% 30.07 in 0.5 mi South 5.8 mph - N/A Fog Light Freezing Fog
7:52 AM 28.0 °F 20.8 °F 27.0 °F 96% 30.07 in 0.2 mi South 6.9 mph - N/A Fog Light Freezing Fog
8:00 AM 28.0 °F 19.3 °F 27.0 °F 96% 30.03 in 0.2 mi South 9.2 mph - N/A Fog Light Freezing Fog
8:10 AM 28.0 °F 20.0 °F 27.0 °F 96% 30.03 in 0.2 mi South 8.1 mph - N/A Fog Light Freezing Fog
8:20 AM 28.0 °F 20.0 °F 28.0 °F 100% 30.03 in 0.8 mi South 8.1 mph - N/A   Overcast
8:29 AM 28.0 °F 18.6 °F 28.0 °F 100% 30.03 in 1.0 mi South 10.4 mph - N/A   Overcast
8:35 AM 28.9 °F 19.8 °F 28.0 °F 96% 30.02 in 3.0 mi South 10.4 mph - N/A   Overcast
8:49 AM 28.4 °F 19.1 °F 28.4 °F 100% 30.02 in 5.0 mi South 10.4 mph - N/A   Overcast
8:52 AM 28.9 °F 19.2 °F 28.0 °F 96% 30.06 in 5.0 mi South 11.5 mph - N/A   Overcast
9:11 AM 28.9 °F 19.2 °F 28.0 °F 96% 30.02 in 4.0 mi South 11.5 mph - N/A   Overcast
9:52 AM 30.0 °F 23.2 °F 28.0 °F 92% 30.03 in 4.0 mi South 6.9 mph - N/A   Overcast
10:00 AM 30.0 °F 23.2 °F 28.9 °F 96% 29.99 in 6.0 mi South 6.9 mph - N/A   Overcast
10:52 AM 32.0 °F 24.2 °F 28.9 °F 88% 29.99 in 4.0 mi SSE 9.2 mph - N/A   Overcast
11:52 AM 32.0 °F 24.2 °F 30.0 °F 92% 29.92 in 2.5 mi SSE 9.2 mph - N/A   Overcast
12:28 PM 32.0 °F 22.1 °F 30.9 °F 96% 29.86 in 0.8 mi SSE 13.8 mph - N/A   Overcast
12:52 PM 32.0 °F 22.1 °F 30.9 °F 96% 29.86 in 0.5 mi SSE 13.8 mph - N/A   Overcast
1:01 PM 32.0 °F 21.6 °F 30.9 °F 96% 29.84 in 0.2 mi SSE 15.0 mph - N/A   Overcast
1:47 PM 32.0 °F 22.1 °F 30.2 °F 93% 29.80 in 0.5 mi SSE 13.8 mph - N/A   Overcast
1:52 PM 32.0 °F 22.5 °F 32.0 °F 100% 29.83 in 0.8 mi SSE 12.7 mph - N/A   Overcast
2:15 PM 33.1 °F 23.9 °F 32.0 °F 96% 29.78 in 1.0 mi SSE 12.7 mph - N/A   Overcast
2:52 PM 33.1 °F 23.9 °F 32.0 °F 96% 29.80 in 0.8 mi SSE 12.7 mph - N/A   Overcast
3:27 PM 33.1 °F 24.4 °F 32.0 °F 96% 29.75 in 1.0 mi SSE 11.5 mph - 0.01 in Rain Light Rain
3:39 PM 33.1 °F 23.4 °F 32.0 °F 96% 29.74 in 0.5 mi SSE 13.8 mph - 0.01 in Rain Light Rain
3:52 PM 33.1 °F 23.9 °F 33.1 °F 100% 29.76 in 0.5 mi SSE 12.7 mph - 0.01 in Fog Fog
4:23 PM 34.0 °F 23.8 °F 33.1 °F 96% 29.71 in 1.5 mi SSE 16.1 mph - 0.04 in Rain Light Freezing Rain
4:35 PM 34.0 °F 24.2 °F 33.1 °F 96% 29.71 in 2.0 mi South 15.0 mph - 0.08 in Rain Light Freezing Rain
4:52 PM 34.0 °F 23.4 °F 33.1 °F 96% 29.71 in 2.0 mi SSE 17.3 mph - 0.15 in Rain Light Freezing Rain
5:03 PM 35.1 °F 25.2 °F 33.1 °F 92% 29.67 in 3.0 mi SSE 16.1 mph - 0.03 in Rain Light Freezing Rain
5:42 PM 36.0 °F 26.0 °F 34.0 °F 93% 29.64 in 4.0 mi SSE 17.3 mph - 0.11 in Rain Light Freezing Rain
5:52 PM 35.1 °F 24.8 °F 34.0 °F 96% 29.66 in 4.0 mi SSE 17.3 mph - 0.12 in Rain Light Freezing Rain
6:52 PM 36.0 °F 28.5 °F 35.1 °F 97% 29.62 in 5.0 mi SSE 10.4 mph - 0.08 in Rain Light Freezing Rain
7:48 PM 35.6 °F 30.7 °F 35.6 °F 100% 29.56 in 5.0 mi SSW 5.8 mph - 0.04 in Rain Light Rain
7:52 PM 36.0 °F 31.1 °F 35.1 °F 97% 29.58 in 5.0 mi South 5.8 mph - 0.05 in Rain Light Rain
8:52 PM 37.0 °F 30.4 °F 36.0 °F 96% 29.55 in 9.0 mi South 9.2 mph - 0.01 in   Overcast
9:52 PM 39.0 °F 31.0 °F 37.0 °F 93% 29.53 in 8.0 mi SSW 13.8 mph - 0.02 in Rain Light Rain
10:43 PM 37.9 °F 30.5 °F 37.0 °F 97% 29.49 in 5.0 mi SSW 11.5 mph - 0.04 in Rain Light Rain
10:52 PM 37.9 °F 30.5 °F 37.0 °F 97% 29.51 in 10.0 mi SSW 11.5 mph - 0.04 in Rain Light Rain
11:08 PM 39.0 °F 31.0 °F 37.0 °F 93% 29.49 in 5.0 mi SSW 13.8 mph - 0.00 in   Overcast
11:36 PM 37.9 °F 30.5 °F 37.0 °F 97% 29.48 in 5.0 mi SSW 11.5 mph - 0.00 in Rain Light Rain
11:52 PM 37.9 °F 30.0 °F 37.0 °F 97% 29.49 in 9.0 mi SSW 12.7 mph - 0.00 in   Overcast